Location: Moscow
(55.7500°N, 37.5830°E)
Time: 07:52:21
(UTC+03:00)

M-CUBED/EXP-1 PRIME - Visible Passes

Search period start: 28 January 2022 00:00
Search period end: 07 February 2022 00:00
Orbit: 426 x 650 km, 101.7° (Epoch: 27 January)

Date Brightness Start Highest point End Pass type
(mag) Time Alt. Az. Time Alt. Az. Time Alt. Az.
28 Jan ? 18:06:54 14° ENE 18:07:22 14° NE 18:09:13 10° NNE visible
28 Jan ? 19:42:22 36° NNW 19:42:22 36° NNW 19:44:30 10° NNW visible
29 Jan ? 17:58:49 11° ENE 17:59:27 12° NE 18:00:43 10° NNE visible
29 Jan ? 19:34:16 35° N 19:34:16 35° N 19:36:25 10° NNW visible
30 Jan ? 19:26:10 34° N 19:26:10 34° N 19:28:19 10° NNW visible
30 Jan ? 21:01:37 11° NW 21:01:37 11° NW 21:01:51 10° NW visible
31 Jan ? 19:18:01 31° NNE 19:18:01 31° NNE 19:20:11 10° N visible
31 Jan ? 20:53:29 13° NW 20:53:29 13° NW 20:54:01 10° NW visible
01 Feb ? 19:09:53 28° NNE 19:09:53 28° NNE 19:12:01 10° N visible
01 Feb ? 20:45:20 15° NW 20:45:20 15° NW 20:46:06 10° NW visible
02 Feb ? 19:01:42 24° NNE 19:01:42 24° NNE 19:03:50 10° N visible
02 Feb ? 20:37:10 17° NW 20:37:10 17° NW 20:38:08 10° NW visible
03 Feb ? 18:53:32 21° NE 18:53:32 21° NE 18:55:36 10° N visible
03 Feb ? 20:28:59 19° NW 20:28:59 19° NW 20:30:07 10° NNW visible
04 Feb ? 18:45:20 18° NE 18:45:20 18° NE 18:47:19 10° N visible
04 Feb ? 20:20:47 22° NW 20:20:47 22° NW 20:22:04 10° NNW visible
05 Feb ? 18:37:07 16° NE 18:37:07 16° NE 18:38:59 10° NNE visible
05 Feb ? 20:12:34 24° NNW 20:12:34 24° NNW 20:13:59 10° NNW visible
06 Feb ? 18:28:54 13° NE 18:28:56 13° NE 18:30:32 10° NNE visible
06 Feb ? 20:04:21 26° NNW 20:04:21 26° NNW 20:05:53 10° NNW visible
